GW0815 Weather Reports


Display with metric or nautical units.
time (UTC)temp
F
wind
direction
speed
MPH
gust
MPH
rain 1hr
in
rain 24hr
in
rain mn
in
humidity
%
barometer
mb
20260503214541 75 17 6.0 12.0 0.00 0.00 0.00 38 1011.5
20260503213043 75 338 5.0 11.0 0.00 0.00 0.00 42 1011.6
20260503211539 74 328 6.0 15.0 0.00 0.00 0.00 42 1011.7
20260503210034 74 346 5.0 11.0 0.00 0.00 0.00 42 1011.8
20260503204533 73 306 7.0 12.0 0.00 0.00 0.00 42 1012.0
20260503203029 73 337 4.0 14.0 0.00 0.00 0.00 45 1012.2
20260503201527 72 360 3.0 12.0 0.00 0.00 0.00 47 1012.3
20260503200024 70 338 4.0 14.0 0.00 0.00 0.00 48 1012.5
20260503194521 70 355 4.0 12.0 0.00 0.00 0.00 50 1012.8
20260503193034 69 341 3.0 11.0 0.00 0.00 0.00 52 1012.9
20260503191516 68 15 3.0 9.0 0.00 0.00 0.00 53 1013.1
20260503190024 67 49 2.0 12.0 0.00 0.00 0.00 54 1013.2
20260503184511 67 355 6.0 13.0 0.00 0.00 0.00 54 1013.3
20260503183008 66 69 4.0 10.0 0.00 0.00 0.00 59 1013.5
20260503181506 65 334 4.0 10.0 0.00 0.00 0.00 60 1013.6
20260503180005 64 44 2.0 10.0 0.00 0.00 0.00 59 1013.7
20260503174503 64 16 3.0 10.0 0.00 0.00 0.00 59 1013.7
20260503173005 64 360 6.0 12.0 0.00 0.00 0.00 60 1013.7
20260503171501 63 360 3.0 8.0 0.00 0.00 0.00 62 1013.8
20260503081534 61 82 2.0 5.0 0.00 0.00 0.00 54 1014.3
20260503071515 62 62 3.0 9.0 0.00 0.00 0.00 51 1014.2
20260503054509 62 51 3.0 8.0 0.00 0.00 0.00 55 1014.0
20260503053003 63 92 3.0 7.0 0.00 0.00 0.00 57 1014.1
20260503051501 63 51 3.0 7.0 0.00 0.00 0.00 58 1014.1
20260503050001 63 66 2.0 7.0 0.00 0.00 0.00 58 1013.9
20260503044600 63 32 3.0 7.0 0.00 0.00 0.00 59 1013.9
20260503043110 63 40 3.0 7.0 0.00 0.00 0.00 59 1013.7
20260503041559 63 44 2.0 6.0 0.00 0.00 0.00 57 1013.6
20260503034610 64 30 3.0 8.0 0.00 0.00 0.00 57 1013.2
20260503033058 64 30 3.0 11.0 0.00 0.00 0.00 57 1013.0
20260503031556 65 307 4.0 17.0 0.00 0.00 0.00 55 1012.9
20260503030055 66 360 8.0 17.0 0.00 0.00 0.00 54 1012.8
20260503024554 67 30 3.0 11.0 0.00 0.00 0.00 51 1012.7
20260503023053 68 5 8.0 17.0 0.00 0.00 0.00 49 1012.6
20260503021554 69 5 8.0 14.0 0.00 0.00 0.00 48 1012.6
20260503020056 70 336 8.0 17.0 0.00 0.00 0.00 47 1012.6
20260503014604 70 332 9.0 19.0 0.00 0.00 0.00 46 1012.6
20260503013051 70 355 10.0 20.0 0.00 0.00 0.00 46 1012.6
20260503011550 71 17 9.0 16.0 0.00 0.00 0.00 44 1012.7
20260503010048 71 360 10.0 16.0 0.00 0.00 0.00 46 1012.8
20260503004547 71 351 10.0 16.0 0.00 0.00 0.00 46 1013.0
20260503003052 71 5 6.0 15.0 0.00 0.00 0.00 47 1013.0
20260503001602 70 343 9.0 17.0 0.00 0.00 0.00 48 1013.0
20260503000047 70 339 11.0 18.0 0.00 0.00 0.00 47 1013.2
20260502234544 70 344 10.0 18.0 0.00 0.00 0.00 47 1013.3
20260502233037 70 337 11.0 21.0 0.00 0.00 0.00 46 1013.5
20260502231534 70 26 11.0 20.0 0.00 0.00 0.00 44 1013.7
20260502230035 70 345 11.0 21.0 0.00 0.00 0.00 46 1013.9
20260502224528 69 355 9.0 18.0 0.00 0.00 0.00 48 1014.2
20260502223026 69 350 8.0 16.0 0.00 0.00 0.00 49 1014.4
20260502221523 68 39 11.0 17.0 0.00 0.00 0.00 49 1014.6
20260502220020 68 315 10.0 18.0 0.00 0.00 0.00 51 1014.8